Terminal Aerodrome Forecast
Issued by NWS

Home | Current Version | Previous Version | Text Only | Print | Product List | Glossary On
Versions: 1 2 3 4 5 6 7 8 9 10 11 12 13 14 15 16 17 18 19 20 21 22 23
295
FTUS45 KRIW 111728
TAFPNA
TAF
KPNA 111728Z 1118/1218 29006KT P6SM FEW120 SCT250
     FM120300 29007KT P6SM BKN120
     FM121400 VRB05KT P6SM SCT150 BKN250
      AMD LTD TO CLD VIS AND WIND=

USA.gov is the U.S. government's official web portal to all federal, state and local government web resources and services.